Time,TemperatureF,DewpointF,PressureIn,WindDirection,WindDirectionDegrees,WindSpeedMPH,WindSpeedGustMPH,Humidity,HourlyPrecipIn,Conditions,Clouds,dailyrainin,SoftwareType,DateUTC
2013-10-17 00:01:00,59.7,59.2,30.00,SW,225,0.0,0.0,98,0.00,,CLR,0.00,VWS V14.01,2013-10-17 04:01:00,
2013-10-17 00:02:00,59.7,59.2,30.00,SW,225,0.0,0.0,98,0.00,,CLR,0.00,VWS V14.01,2013-10-17 04:02:00,
2013-10-17 00:03:00,59.7,59.2,30.00,SW,225,0.0,0.0,98,0.00,,CLR,0.00,VWS V14.01,2013-10-17 04:03:00,
2013-10-17 00:08:00,59.7,59.2,30.00,SW,225,0.0,0.0,98,0.00,,CLR,0.00,VWS V14.01,2013-10-17 04:08:00,
2013-10-17 00:13:00,59.7,59.2,30.00,SW,225,0.0,0.0,98,0.00,,CLR,0.00,VWS V14.01,2013-10-17 04:13:00,
2013-10-17 00:18:00,59.7,59.2,30.00,SW,225,0.0,0.0,98,0.00,,CLR,0.00,VWS V14.01,2013-10-17 04:18:00,
2013-10-17 00:23:00,59.7,59.2,30.00,SW,225,0.0,0.0,98,0.00,,CLR,0.00,VWS V14.01,2013-10-17 04:23:00,
2013-10-17 00:28:00,59.7,59.2,30.00,SW,225,0.0,0.0,98,0.00,,CLR,0.00,VWS V14.01,2013-10-17 04:28:00,
2013-10-17 00:33:00,59.7,59.2,30.00,SW,225,0.0,0.0,98,0.00,,CLR,0.00,VWS V14.01,2013-10-17 04:33:00,
2013-10-17 00:38:00,59.7,59.2,30.00,SW,225,0.0,0.0,98,0.00,,CLR,0.00,VWS V14.01,2013-10-17 04:38:00,
2013-10-17 00:43:00,59.9,59.3,30.00,SW,225,0.0,0.0,98,0.00,,CLR,0.00,VWS V14.01,2013-10-17 04:43:00,
2013-10-17 00:48:00,59.7,59.2,30.00,SW,225,0.0,0.0,98,0.00,,CLR,0.00,VWS V14.01,2013-10-17 04:48:00,
2013-10-17 00:53:00,59.7,59.2,30.00,SW,225,0.0,0.0,98,0.00,,CLR,0.00,VWS V14.01,2013-10-17 04:53:00,
2013-10-17 00:58:00,59.9,59.3,30.00,SW,225,0.0,0.0,98,0.00,,CLR,0.00,VWS V14.01,2013-10-17 04:58:00,
2013-10-17 01:03:00,59.9,59.3,29.97,SW,225,0.0,0.0,98,0.00,,RA,0.00,VWS V14.01,2013-10-17 05:03:00,
2013-10-17 01:08:00,60.1,59.5,29.97,SW,225,0.0,0.0,98,0.00,,RA,0.00,VWS V14.01,2013-10-17 05:08:00,
2013-10-17 01:13:00,60.1,59.5,29.97,SW,225,0.0,0.0,98,0.00,,RA,0.00,VWS V14.01,2013-10-17 05:13:00,
2013-10-17 01:18:00,60.1,59.5,30.00,SW,225,0.0,0.0,98,0.00,,RA,0.00,VWS V14.01,2013-10-17 05:18:00,
2013-10-17 01:23:00,60.1,59.5,30.00,SW,225,0.0,0.0,98,0.00,,-RA,0.00,VWS V14.01,2013-10-17 05:23:00,
2013-10-17 01:28:00,60.1,59.5,30.00,SW,225,0.0,0.0,98,0.00,,-RA,0.00,VWS V14.01,2013-10-17 05:28:00,
2013-10-17 01:33:00,60.1,59.5,29.97,SW,225,0.0,0.0,98,0.00,,-RA,0.00,VWS V14.01,2013-10-17 05:33:00,
2013-10-17 01:38:00,59.9,59.3,29.97,SW,225,0.0,0.0,98,0.00,,-RA,0.00,VWS V14.01,2013-10-17 05:38:00,
2013-10-17 01:43:00,59.9,59.3,29.97,SW,225,0.0,0.0,98,0.00,,,0.00,VWS V14.01,2013-10-17 05:43:00,
2013-10-17 01:48:00,59.9,59.3,30.00,SW,225,0.0,0.0,98,0.00,,,0.00,VWS V14.01,2013-10-17 05:48:00,
2013-10-17 01:53:00,59.9,59.3,30.00,SW,225,0.0,0.0,98,0.00,,,0.00,VWS V14.01,2013-10-17 05:53:00,
2013-10-17 01:58:00,59.9,59.3,30.00,SW,225,0.0,0.0,98,0.00,,,0.00,VWS V14.01,2013-10-17 05:58:00,
2013-10-17 02:03:00,59.9,59.3,30.00,SW,225,0.0,0.0,98,0.00,,-RA,0.00,VWS V14.01,2013-10-17 06:03:00,
2013-10-17 02:08:00,60.1,59.5,30.00,SW,225,0.0,0.0,98,0.00,,-RA,0.00,VWS V14.01,2013-10-17 06:08:00,
2013-10-17 02:13:00,60.1,59.5,30.00,SW,225,0.0,0.0,98,0.00,,-RA,0.00,VWS V14.01,2013-10-17 06:13:00,
2013-10-17 02:18:00,59.9,59.3,30.00,SW,225,0.0,0.0,98,0.00,,-RA,0.00,VWS V14.01,2013-10-17 06:18:00,
2013-10-17 02:23:00,59.9,59.3,29.97,SW,225,0.0,0.0,98,0.00,,-RA,0.00,VWS V14.01,2013-10-17 06:23:00,
2013-10-17 02:28:00,59.9,59.3,29.97,SW,225,0.0,0.0,98,0.00,,-RA,0.00,VWS V14.01,2013-10-17 06:28:00,
2013-10-17 02:33:00,59.9,59.3,29.97,SW,225,0.0,0.0,98,0.00,,-RA,0.00,VWS V14.01,2013-10-17 06:33:00,
2013-10-17 02:38:00,59.9,59.3,29.97,SW,225,0.0,0.0,98,0.00,,-RA,0.00,VWS V14.01,2013-10-17 06:38:00,
2013-10-17 02:43:00,59.9,59.3,29.97,SW,225,0.0,0.0,98,0.00,,-RA,0.00,VWS V14.01,2013-10-17 06:43:00,
2013-10-17 02:48:00,59.9,59.3,29.97,SW,225,0.0,0.0,98,0.00,,-RA,0.00,VWS V14.01,2013-10-17 06:48:00,
2013-10-17 02:53:00,59.7,59.2,29.97,SW,225,0.0,0.0,98,0.00,,-RA,0.00,VWS V14.01,2013-10-17 06:53:00,
2013-10-17 02:58:00,59.5,59.0,29.97,SW,225,0.0,0.0,98,0.00,,-RA,0.00,VWS V14.01,2013-10-17 06:58:00,
2013-10-17 03:03:00,59.4,58.8,29.97,SW,225,0.0,0.0,98,0.00,,,0.00,VWS V14.01,2013-10-17 07:03:00,
2013-10-17 03:08:00,59.4,58.8,29.97,SW,225,0.0,0.0,98,0.00,,,0.00,VWS V14.01,2013-10-17 07:08:00,
2013-10-17 03:13:00,59.2,58.6,29.97,SW,225,0.0,0.0,98,0.00,,,0.00,VWS V14.01,2013-10-17 07:13:00,
2013-10-17 03:18:00,59.2,58.6,29.97,SW,225,0.0,0.0,98,0.00,,,0.00,VWS V14.01,2013-10-17 07:18:00,
2013-10-17 03:23:00,59.4,58.8,29.97,SW,225,0.0,0.0,98,0.00,,,0.00,VWS V14.01,2013-10-17 07:23:00,
2013-10-17 03:28:00,59.4,58.8,29.97,SW,225,0.0,0.0,98,0.00,,,0.00,VWS V14.01,2013-10-17 07:28:00,
2013-10-17 03:33:00,59.4,58.8,29.97,SW,225,0.0,0.0,98,0.00,,,0.00,VWS V14.01,2013-10-17 07:33:00,
2013-10-17 03:38:00,59.4,58.8,29.97,SW,225,0.0,0.0,98,0.00,,,0.00,VWS V14.01,2013-10-17 07:38:00,
2013-10-17 03:43:00,59.5,59.0,29.97,SW,225,0.0,0.0,98,0.00,,,0.00,VWS V14.01,2013-10-17 07:43:00,
2013-10-17 03:48:00,59.7,59.2,29.97,SW,225,0.0,0.0,98,0.00,,,0.00,VWS V14.01,2013-10-17 07:48:00,
2013-10-17 03:53:00,59.7,59.2,29.97,SW,225,0.0,0.0,98,0.00,,,0.00,VWS V14.01,2013-10-17 07:53:00,
2013-10-17 03:58:00,59.7,59.2,29.97,SW,225,0.0,0.0,98,0.00,,,0.00,VWS V14.01,2013-10-17 07:58:00,
2013-10-17 04:03:00,59.7,59.2,29.97,SW,225,0.0,0.0,98,0.00,,,0.00,VWS V14.01,2013-10-17 08:03:00,
2013-10-17 04:08:00,59.7,59.2,29.94,SW,225,0.0,0.0,98,0.00,,,0.00,VWS V14.01,2013-10-17 08:08:00,
2013-10-17 04:11:00,59.7,59.2,29.94,SW,225,0.0,0.0,98,0.00,,,0.00,VWS V14.01,2013-10-17 08:11:00,
2013-10-17 04:16:00,59.7,59.2,29.94,SW,225,0.0,0.0,98,0.00,,,0.00,VWS V14.01,2013-10-17 08:16:00,
2013-10-17 04:21:00,59.7,59.2,29.94,SW,225,0.0,0.0,98,0.00,,,0.00,VWS V14.01,2013-10-17 08:21:00,
2013-10-17 04:26:00,59.7,59.2,29.94,SW,225,0.0,0.0,98,0.00,,,0.00,VWS V14.01,2013-10-17 08:26:00,
2013-10-17 04:31:00,59.7,59.2,29.94,SW,225,0.0,0.0,98,0.00,,,0.00,VWS V14.01,2013-10-17 08:31:00,
2013-10-17 04:36:00,59.7,59.2,29.94,SW,225,0.0,0.0,98,0.00,,,0.00,VWS V14.01,2013-10-17 08:36:00,
2013-10-17 04:41:00,59.7,59.2,29.94,SW,225,0.0,0.0,98,0.00,,,0.00,VWS V14.01,2013-10-17 08:41:00,
2013-10-17 04:46:00,59.5,59.0,29.94,SW,225,0.0,0.0,98,0.00,,,0.00,VWS V14.01,2013-10-17 08:46:00,
2013-10-17 04:51:00,59.7,59.2,29.94,SW,225,0.0,0.0,98,0.00,,,0.00,VWS V14.01,2013-10-17 08:51:00,
2013-10-17 04:56:00,59.5,59.0,29.94,SW,225,0.0,0.0,98,0.00,,,0.00,VWS V14.01,2013-10-17 08:56:00,
2013-10-17 05:01:00,59.4,58.8,29.94,SW,225,0.0,0.0,98,0.00,,,0.00,VWS V14.01,2013-10-17 09:01:00,
2013-10-17 05:06:00,59.4,58.8,29.97,SW,225,0.0,0.0,98,0.00,,,0.00,VWS V14.01,2013-10-17 09:06:00,
2013-10-17 05:11:00,59.2,58.6,29.97,SW,225,0.0,0.0,98,0.00,,,0.00,VWS V14.01,2013-10-17 09:11:00,
2013-10-17 05:16:00,59.2,58.6,29.97,SW,225,0.0,0.0,98,0.00,,,0.00,VWS V14.01,2013-10-17 09:16:00,
2013-10-17 05:21:00,59.0,58.4,29.94,SW,225,0.0,0.0,98,0.00,,,0.00,VWS V14.01,2013-10-17 09:21:00,
2013-10-17 05:26:00,59.0,58.4,29.94,SW,225,0.0,0.0,98,0.00,,,0.00,VWS V14.01,2013-10-17 09:26:00,
2013-10-17 05:31:00,59.0,58.4,29.94,SW,225,0.0,0.0,98,0.00,,,0.00,VWS V14.01,2013-10-17 09:31:00,
2013-10-17 05:36:00,58.8,58.3,29.97,SW,225,0.0,0.0,98,0.00,,,0.00,VWS V14.01,2013-10-17 09:36:00,
2013-10-17 05:41:00,58.8,58.3,29.97,SW,225,0.0,0.0,98,0.00,,,0.00,VWS V14.01,2013-10-17 09:41:00,
2013-10-17 05:46:00,58.8,58.3,29.97,SW,225,0.0,0.0,98,0.00,,,0.00,VWS V14.01,2013-10-17 09:46:00,
2013-10-17 05:51:00,58.8,58.3,29.94,SW,225,0.0,0.0,98,0.00,,,0.00,VWS V14.01,2013-10-17 09:51:00,
2013-10-17 05:56:00,59.0,58.4,29.94,SW,225,0.0,0.0,98,0.00,,,0.00,VWS V14.01,2013-10-17 09:56:00,
2013-10-17 06:01:00,59.0,58.4,29.94,SW,225,0.0,0.0,98,0.00,,,0.00,VWS V14.01,2013-10-17 10:01:00,
2013-10-17 06:06:00,59.2,58.6,29.97,SW,225,0.0,0.0,98,0.00,,,0.00,VWS V14.01,2013-10-17 10:06:00,
2013-10-17 06:11:00,59.2,58.6,29.97,SW,225,0.0,0.0,98,0.00,,,0.00,VWS V14.01,2013-10-17 10:11:00,
2013-10-17 06:16:00,59.2,58.6,29.97,SW,225,0.0,0.0,98,0.00,,,0.00,VWS V14.01,2013-10-17 10:16:00,
2013-10-17 06:21:00,59.2,58.6,29.94,SW,225,0.0,0.0,98,0.00,,,0.00,VWS V14.01,2013-10-17 10:21:00,
2013-10-17 06:26:00,59.2,58.6,29.94,SW,225,0.0,0.0,98,0.00,,,0.00,VWS V14.01,2013-10-17 10:26:00,
2013-10-17 06:31:00,59.2,58.6,29.94,SW,225,0.0,0.0,98,0.00,,,0.00,VWS V14.01,2013-10-17 10:31:00,
2013-10-17 06:36:00,59.2,58.6,29.97,SW,225,0.0,0.0,98,0.00,,,0.00,VWS V14.01,2013-10-17 10:36:00,
2013-10-17 06:41:00,59.2,58.6,29.97,SW,225,0.0,0.0,98,0.00,,,0.00,VWS V14.01,2013-10-17 10:41:00,
2013-10-17 06:46:00,59.2,58.6,29.97,SW,225,0.0,0.0,98,0.00,,,0.00,VWS V14.01,2013-10-17 10:46:00,
2013-10-17 06:51:00,59.2,58.6,29.97,SW,225,0.0,0.0,98,0.00,,,0.00,VWS V14.01,2013-10-17 10:51:00,
2013-10-17 06:56:00,59.4,58.8,29.97,SW,225,0.0,0.0,98,0.00,,,0.00,VWS V14.01,2013-10-17 10:56:00,
2013-10-17 07:01:00,59.4,58.8,29.97,SW,225,0.0,0.0,98,0.00,,RA,0.00,VWS V14.01,2013-10-17 11:01:00,
2013-10-17 07:06:00,59.2,58.6,29.97,SW,225,0.0,0.0,98,0.00,,RA,0.00,VWS V14.01,2013-10-17 11:06:00,
2013-10-17 07:11:00,59.2,58.6,29.97,SW,225,0.0,0.0,98,0.00,,RA,0.00,VWS V14.01,2013-10-17 11:11:00,
2013-10-17 07:16:00,59.4,58.8,29.97,SW,225,0.0,0.0,98,0.00,,RA,0.00,VWS V14.01,2013-10-17 11:16:00,
2013-10-17 07:21:00,59.4,58.8,29.97,SW,225,0.0,0.0,98,0.00,,RA,0.00,VWS V14.01,2013-10-17 11:21:00,
2013-10-17 07:26:00,59.4,58.8,29.97,SW,225,0.0,0.0,98,0.00,,RA,0.00,VWS V14.01,2013-10-17 11:26:00,
2013-10-17 07:31:00,59.4,58.8,29.97,SW,225,0.0,0.0,98,0.00,,RA,0.00,VWS V14.01,2013-10-17 11:31:00,
2013-10-17 07:36:00,59.4,58.8,29.97,SW,225,0.0,0.0,98,0.00,,RA,0.00,VWS V14.01,2013-10-17 11:36:00,
2013-10-17 07:41:00,59.4,58.8,29.97,SW,225,0.0,0.0,98,0.00,,-RA,0.00,VWS V14.01,2013-10-17 11:41:00,
2013-10-17 07:46:00,59.5,59.0,29.97,SW,225,0.0,0.0,98,0.00,,-RA,0.00,VWS V14.01,2013-10-17 11:46:00,
2013-10-17 07:51:00,59.5,59.0,29.94,SW,225,0.0,0.0,98,0.00,,-RA,0.00,VWS V14.01,2013-10-17 11:51:00,
2013-10-17 07:56:00,59.5,59.0,29.94,SW,225,0.0,0.0,98,0.00,,-RA,0.00,VWS V14.01,2013-10-17 11:56:00,
2013-10-17 08:01:00,59.5,59.0,29.94,SW,225,0.0,0.0,98,0.00,,-RA,0.00,VWS V14.01,2013-10-17 12:01:00,
2013-10-17 08:06:00,59.7,59.2,29.94,SW,225,0.0,0.0,98,0.00,,-RA,0.00,VWS V14.01,2013-10-17 12:06:00,
2013-10-17 08:11:00,59.5,59.0,29.94,SW,225,0.0,0.0,98,0.00,,-RA,0.00,VWS V14.01,2013-10-17 12:11:00,
2013-10-17 08:16:00,59.7,59.2,29.94,SW,225,0.0,0.0,98,0.00,,-RA,0.00,VWS V14.01,2013-10-17 12:16:00,
2013-10-17 08:21:00,59.7,59.2,29.97,SW,225,0.0,0.0,98,0.00,,,0.00,VWS V14.01,2013-10-17 12:21:00,
2013-10-17 08:26:00,59.9,59.3,29.97,SW,225,0.0,0.0,98,0.00,,,0.00,VWS V14.01,2013-10-17 12:26:00,
2013-10-17 08:31:00,60.1,59.5,29.97,SW,225,0.0,0.0,98,0.00,,,0.00,VWS V14.01,2013-10-17 12:31:00,
2013-10-17 08:36:00,60.1,59.5,29.97,SW,225,0.0,0.0,98,0.00,,,0.00,VWS V14.01,2013-10-17 12:36:00,
2013-10-17 08:41:00,60.3,59.7,29.97,SW,225,0.0,0.0,98,0.00,,,0.00,VWS V14.01,2013-10-17 12:41:00,
2013-10-17 08:46:00,60.3,59.7,29.97,SW,225,0.0,0.0,98,0.00,,,0.00,VWS V14.01,2013-10-17 12:46:00,
2013-10-17 08:51:00,60.4,59.9,29.97,SW,225,0.0,0.0,98,0.00,,,0.00,VWS V14.01,2013-10-17 12:51:00,
2013-10-17 08:56:00,60.6,60.1,29.97,SW,225,0.0,0.0,98,0.00,,,0.00,VWS V14.01,2013-10-17 12:56:00,
2013-10-17 09:01:00,60.6,60.1,29.97,SW,225,0.0,0.0,98,0.00,,,0.00,VWS V14.01,2013-10-17 13:01:00,
2013-10-17 09:06:00,61.0,60.4,29.97,SW,225,0.0,0.0,98,0.00,,,0.00,VWS V14.01,2013-10-17 13:06:00,
2013-10-17 09:11:00,61.2,60.6,29.97,SW,225,0.0,0.0,98,0.00,,,0.00,VWS V14.01,2013-10-17 13:11:00,
2013-10-17 09:16:00,61.3,60.8,29.97,SW,225,0.0,0.0,98,0.00,,,0.00,VWS V14.01,2013-10-17 13:16:00,
2013-10-17 09:21:00,61.3,60.8,29.97,SW,225,0.0,0.0,98,0.00,,,0.00,VWS V14.01,2013-10-17 13:21:00,
2013-10-17 09:26:00,61.5,61.0,29.97,SW,225,0.0,0.0,98,0.00,,,0.00,VWS V14.01,2013-10-17 13:26:00,
2013-10-17 09:31:00,61.3,60.8,29.97,SW,225,0.0,0.0,98,0.00,,,0.00,VWS V14.01,2013-10-17 13:31:00,
2013-10-17 09:36:00,61.7,61.1,29.97,SW,225,0.0,0.0,98,0.00,,,0.00,VWS V14.01,2013-10-17 13:36:00,
2013-10-17 09:41:00,61.9,61.3,29.97,SW,225,0.0,0.0,98,0.00,,,0.00,VWS V14.01,2013-10-17 13:41:00,
2013-10-17 09:46:00,61.9,61.3,29.97,SW,225,0.0,0.0,98,0.00,,,0.00,VWS V14.01,2013-10-17 13:46:00,
2013-10-17 09:51:00,62.1,61.5,29.97,SW,225,0.0,0.0,98,0.00,,,0.00,VWS V14.01,2013-10-17 13:51:00,
2013-10-17 09:56:00,62.2,61.7,29.97,SW,225,0.0,0.0,98,0.00,,,0.00,VWS V14.01,2013-10-17 13:56:00,
2013-10-17 10:01:00,62.2,61.7,29.97,SW,225,0.0,0.0,98,0.00,,-RA,0.00,VWS V14.01,2013-10-17 14:01:00,
2013-10-17 10:06:00,62.2,61.7,29.97,SW,225,0.0,0.0,98,0.00,,-RA,0.00,VWS V14.01,2013-10-17 14:06:00,
2013-10-17 10:11:00,62.2,61.7,29.97,SW,225,0.0,0.0,98,0.00,,-RA,0.00,VWS V14.01,2013-10-17 14:11:00,
2013-10-17 10:16:00,62.4,61.8,29.97,SW,225,0.0,0.0,98,0.04,,-RA,0.04,VWS V14.01,2013-10-17 14:16:00,
2013-10-17 10:21:00,62.4,61.8,29.97,SW,225,0.0,0.0,98,0.04,, +RA,0.04,VWS V14.01,2013-10-17 14:21:00,
2013-10-17 10:26:00,62.4,61.8,29.97,SW,225,0.0,0.0,98,0.04,, +RA,0.04,VWS V14.01,2013-10-17 14:26:00,
2013-10-17 10:31:00,62.4,61.8,29.97,SW,225,0.0,0.0,98,0.04,, +RA,0.04,VWS V14.01,2013-10-17 14:31:00,
2013-10-17 10:36:00,62.4,61.8,29.97,SW,225,0.0,0.0,98,0.04,, +RA,0.04,VWS V14.01,2013-10-17 14:36:00,
2013-10-17 10:41:00,62.6,62.0,29.97,SW,225,0.0,0.0,98,0.04,,-RA,0.04,VWS V14.01,2013-10-17 14:41:00,
2013-10-17 10:46:00,62.6,62.0,29.97,SW,225,0.0,0.0,98,0.04,,-RA,0.04,VWS V14.01,2013-10-17 14:46:00,
2013-10-17 10:51:00,62.6,62.0,29.97,SW,225,0.0,0.0,98,0.04,,-RA,0.04,VWS V14.01,2013-10-17 14:51:00,
2013-10-17 10:56:00,62.6,62.0,29.97,SW,225,0.0,0.0,98,0.04,,-RA,0.04,VWS V14.01,2013-10-17 14:56:00,
2013-10-17 11:01:00,62.6,62.0,29.97,SW,225,0.0,0.0,98,0.04,,-RA,0.04,VWS V14.01,2013-10-17 15:01:00,
2013-10-17 11:06:00,62.6,62.0,29.97,SW,225,0.0,0.0,98,0.08,,-RA,0.08,VWS V14.01,2013-10-17 15:06:00,
2013-10-17 11:11:00,62.6,62.0,29.97,SW,225,0.0,0.0,98,0.08,,-RA,0.08,VWS V14.01,2013-10-17 15:11:00,
2013-10-17 11:16:00,62.8,62.2,29.97,SW,225,0.0,0.0,98,0.04,,-RA,0.08,VWS V14.01,2013-10-17 15:16:00,
2013-10-17 11:21:00,63.0,62.4,29.97,SW,225,0.0,0.0,98,0.04,,OVC004,0.08,VWS V14.01,2013-10-17 15:21:00,
2013-10-17 11:26:00,62.8,62.2,29.97,SW,225,0.0,0.0,98,0.04,,OVC004,0.08,VWS V14.01,2013-10-17 15:26:00,
2013-10-17 11:31:00,63.0,62.4,29.97,SW,225,0.0,0.0,98,0.04,,OVC004,0.08,VWS V14.01,2013-10-17 15:31:00,
2013-10-17 11:36:00,63.0,62.4,29.97,SW,225,0.0,0.0,98,0.04,,OVC004,0.08,VWS V14.01,2013-10-17 15:36:00,
2013-10-17 11:41:00,63.3,62.8,29.97,SW,225,0.0,0.0,98,0.04,,-RA,0.08,VWS V14.01,2013-10-17 15:41:00,
2013-10-17 11:46:00,63.3,62.8,29.97,SW,225,0.0,0.0,98,0.04,,-RA,0.08,VWS V14.01,2013-10-17 15:46:00,
2013-10-17 11:51:00,63.3,62.8,29.94,SW,225,0.0,0.0,98,0.04,,-RA,0.08,VWS V14.01,2013-10-17 15:51:00,
2013-10-17 11:56:00,63.3,62.8,29.94,SW,225,0.0,0.0,98,0.04,,-RA,0.08,VWS V14.01,2013-10-17 15:56:00,
2013-10-17 12:01:00,63.3,62.8,29.94,SW,225,0.0,0.0,98,0.04,,OVC085,0.08,VWS V14.01,2013-10-17 16:01:00,
2013-10-17 12:06:00,63.5,62.9,29.97,SW,225,0.0,0.0,98,0.00,,OVC085,0.08,VWS V14.01,2013-10-17 16:06:00,
2013-10-17 12:11:00,63.5,62.9,29.97,SW,225,0.0,0.0,98,0.00,,OVC085,0.08,VWS V14.01,2013-10-17 16:11:00,
2013-10-17 12:16:00,64.0,63.5,29.97,SW,225,0.0,0.0,98,0.00,,OVC085,0.08,VWS V14.01,2013-10-17 16:16:00,
2013-10-17 12:21:00,64.2,63.7,29.94,SW,225,0.0,0.0,98,0.00,,OVC045,0.08,VWS V14.01,2013-10-17 16:21:00,
2013-10-17 12:26:00,64.4,63.8,29.94,SW,225,0.0,0.0,98,0.00,,OVC045,0.08,VWS V14.01,2013-10-17 16:26:00,
2013-10-17 12:31:00,64.6,64.0,29.94,SW,225,0.0,0.0,98,0.00,,OVC045,0.08,VWS V14.01,2013-10-17 16:31:00,
2013-10-17 12:36:00,64.9,64.4,29.94,SW,225,0.0,0.0,98,0.00,,OVC045,0.08,VWS V14.01,2013-10-17 16:36:00,
2013-10-17 12:41:00,65.1,64.5,29.94,SW,225,0.0,0.0,98,0.00,,OVC015,0.08,VWS V14.01,2013-10-17 16:41:00,
2013-10-17 12:46:00,65.7,65.1,29.94,SW,225,0.0,0.0,98,0.00,,OVC015,0.08,VWS V14.01,2013-10-17 16:46:00,
2013-10-17 12:51:00,65.8,65.3,29.94,SW,225,0.0,0.0,98,0.00,,OVC015,0.08,VWS V14.01,2013-10-17 16:51:00,
2013-10-17 12:56:00,66.2,65.3,29.94,SW,225,2.2,2.2,97,0.00,,OVC015,0.08,VWS V14.01,2013-10-17 16:56:00,
2013-10-17 13:01:00,66.6,65.4,29.94,SW,225,0.0,2.2,96,0.00,,OVC011,0.08,VWS V14.01,2013-10-17 17:01:00,
2013-10-17 13:06:00,66.7,65.3,29.94,SW,225,0.0,0.0,95,0.00,,OVC011,0.08,VWS V14.01,2013-10-17 17:06:00,
2013-10-17 13:11:00,66.9,65.1,29.94,SW,225,0.0,0.0,94,0.00,,OVC011,0.08,VWS V14.01,2013-10-17 17:11:00,
2013-10-17 13:16:00,67.3,64.9,29.94,SW,225,0.0,0.0,92,0.00,,OVC011,0.08,VWS V14.01,2013-10-17 17:16:00,
2013-10-17 13:21:00,67.3,64.6,29.91,SW,225,3.1,3.1,91,0.00,,OVC019,0.08,VWS V14.01,2013-10-17 17:21:00,
2013-10-17 13:26:00,67.8,65.1,29.91,SW,225,0.0,2.2,91,0.00,,OVC019,0.08,VWS V14.01,2013-10-17 17:26:00,
2013-10-17 13:31:00,68.5,65.2,29.91,SW,225,0.0,0.0,89,0.00,,OVC019,0.08,VWS V14.01,2013-10-17 17:31:00,
2013-10-17 13:36:00,68.7,65.3,29.91,SW,225,0.0,2.2,89,0.00,,OVC019,0.08,VWS V14.01,2013-10-17 17:36:00,
2013-10-17 13:41:00,68.5,64.5,29.91,SW,225,0.0,0.0,87,0.00,,OVC022,0.08,VWS V14.01,2013-10-17 17:41:00,
2013-10-17 13:46:00,68.7,64.7,29.91,SW,225,0.0,2.7,87,0.00,,OVC022,0.08,VWS V14.01,2013-10-17 17:46:00,
2013-10-17 13:51:00,68.7,64.7,29.91,SW,225,0.0,2.2,87,0.00,,OVC022,0.08,VWS V14.01,2013-10-17 17:51:00,
2013-10-17 13:56:00,69.1,64.7,29.91,SW,225,0.0,0.0,86,0.00,,OVC022,0.08,VWS V14.01,2013-10-17 17:56:00,
2013-10-17 14:01:00,69.3,65.2,29.91,SW,225,2.2,2.2,87,0.00,,OVC055,0.08,VWS V14.01,2013-10-17 18:01:00,
2013-10-17 14:06:00,69.1,64.7,29.91,SW,225,0.0,0.0,86,0.00,,OVC055,0.08,VWS V14.01,2013-10-17 18:06:00,
2013-10-17 14:11:00,69.1,64.7,29.91,SW,225,0.0,0.0,86,0.00,,OVC055,0.08,VWS V14.01,2013-10-17 18:11:00,
2013-10-17 14:16:00,69.1,64.7,29.91,SW,225,3.1,3.1,86,0.00,,OVC055,0.08,VWS V14.01,2013-10-17 18:16:00,
2013-10-17 14:21:00,69.1,64.7,29.91,SW,225,0.0,0.0,86,0.00,,OVC095,0.08,VWS V14.01,2013-10-17 18:21:00,
2013-10-17 14:26:00,68.7,64.4,29.91,SW,225,0.0,0.0,86,0.00,,OVC095,0.08,VWS V14.01,2013-10-17 18:26:00,
2013-10-17 14:31:00,68.5,64.8,29.91,SW,225,0.0,0.0,88,0.00,,OVC095,0.08,VWS V14.01,2013-10-17 18:31:00,
2013-10-17 14:36:00,68.5,65.2,29.88,SW,225,0.0,0.0,89,0.00,,OVC095,0.08,VWS V14.01,2013-10-17 18:36:00,
2013-10-17 14:41:00,68.4,65.0,29.88,SW,225,0.0,0.0,89,0.00,,-RA,0.08,VWS V14.01,2013-10-17 18:41:00,
2013-10-17 14:47:00,68.5,65.8,29.88,SW,225,0.0,0.0,91,0.00,,-RA,0.08,VWS V14.01,2013-10-17 18:47:00,
2013-10-17 14:52:00,68.4,65.6,29.88,SW,225,0.0,0.0,91,0.00,,-RA,0.08,VWS V14.01,2013-10-17 18:52:00,
2013-10-17 14:57:00,68.2,65.5,29.88,SW,225,0.0,0.0,91,0.00,,-RA,0.08,VWS V14.01,2013-10-17 18:57:00,
2013-10-17 15:02:00,67.8,65.4,29.88,SW,225,0.0,0.0,92,0.00,,OVC120,0.08,VWS V14.01,2013-10-17 19:02:00,
2013-10-17 15:07:00,67.6,65.6,29.88,SW,225,0.0,0.0,93,0.00,,OVC120,0.08,VWS V14.01,2013-10-17 19:07:00,
2013-10-17 15:12:00,67.5,65.7,29.88,SW,225,0.0,0.0,94,0.00,,OVC120,0.08,VWS V14.01,2013-10-17 19:12:00,
2013-10-17 15:17:00,67.3,65.5,29.88,SW,225,0.0,0.0,94,0.00,,OVC120,0.08,VWS V14.01,2013-10-17 19:17:00,
2013-10-17 15:22:00,67.3,65.8,29.88,SW,225,0.0,0.0,95,0.00,,RA,0.08,VWS V14.01,2013-10-17 19:22:00,
2013-10-17 15:27:00,67.1,65.6,29.88,SW,225,0.0,0.0,95,0.00,,RA,0.08,VWS V14.01,2013-10-17 19:27:00,
2013-10-17 15:32:00,67.1,65.9,29.88,SW,225,0.0,0.0,96,0.00,,RA,0.08,VWS V14.01,2013-10-17 19:32:00,
2013-10-17 15:37:00,67.3,66.1,29.88,SW,225,0.0,0.0,96,0.00,,RA,0.08,VWS V14.01,2013-10-17 19:37:00,
2013-10-17 15:42:00,67.5,66.3,29.88,SW,225,3.1,3.1,96,0.00,,OVC028,0.08,VWS V14.01,2013-10-17 19:42:00,
2013-10-17 15:47:00,67.3,65.8,29.88,SW,225,0.0,2.7,95,0.00,,OVC028,0.08,VWS V14.01,2013-10-17 19:47:00,
2013-10-17 15:52:00,67.3,65.8,29.88,SW,225,0.0,0.0,95,0.00,,OVC028,0.08,VWS V14.01,2013-10-17 19:52:00,
2013-10-17 15:57:00,67.1,65.6,29.88,SW,225,0.0,0.0,95,0.00,,OVC028,0.08,VWS V14.01,2013-10-17 19:57:00,
2013-10-17 16:02:00,66.9,65.8,29.88,SW,225,0.0,2.7,96,0.00,,OVC028,0.08,VWS V14.01,2013-10-17 20:02:00,
2013-10-17 16:07:00,66.9,65.8,29.88,SW,225,0.0,0.0,96,0.00,,OVC028,0.08,VWS V14.01,2013-10-17 20:07:00,
2013-10-17 16:12:00,66.9,65.8,29.88,SW,225,0.0,0.0,96,0.00,,OVC028,0.08,VWS V14.01,2013-10-17 20:12:00,
2013-10-17 16:17:00,67.1,65.9,29.88,SW,225,0.0,0.0,96,0.00,,OVC028,0.08,VWS V14.01,2013-10-17 20:17:00,
2013-10-17 16:22:00,67.3,66.1,29.88,SW,225,0.0,0.0,96,0.00,,-RA,0.08,VWS V14.01,2013-10-17 20:22:00,
2013-10-17 16:27:00,67.3,66.1,29.88,SW,225,0.0,0.0,96,0.00,,-RA,0.08,VWS V14.01,2013-10-17 20:27:00,
2013-10-17 16:32:00,67.1,65.9,29.88,SW,225,0.0,0.0,96,0.00,,-RA,0.08,VWS V14.01,2013-10-17 20:32:00,
2013-10-17 16:37:00,67.1,65.9,29.88,SW,225,0.0,0.0,96,0.00,,-RA,0.08,VWS V14.01,2013-10-17 20:37:00,
2013-10-17 16:42:00,66.7,65.6,29.88,SW,225,0.0,2.2,96,0.00,,OVC026,0.08,VWS V14.01,2013-10-17 20:42:00,
2013-10-17 16:47:00,66.6,65.4,29.88,SW,225,0.0,0.0,96,0.00,,OVC026,0.08,VWS V14.01,2013-10-17 20:47:00,
2013-10-17 16:52:00,66.6,65.4,29.88,SW,225,0.0,2.7,96,0.00,,OVC026,0.08,VWS V14.01,2013-10-17 20:52:00,
2013-10-17 16:57:00,66.4,65.2,29.88,SW,225,0.0,0.0,96,0.00,,OVC026,0.08,VWS V14.01,2013-10-17 20:57:00,
2013-10-17 17:02:00,66.4,65.2,29.88,SW,225,3.1,3.1,96,0.00,,OVC018,0.08,VWS V14.01,2013-10-17 21:02:00,
2013-10-17 17:07:00,66.4,65.2,29.88,SW,225,0.0,0.0,96,0.00,,OVC018,0.08,VWS V14.01,2013-10-17 21:07:00,
2013-10-17 17:13:00,66.6,65.4,29.88,SW,225,0.0,2.2,96,0.00,,OVC018,0.08,VWS V14.01,2013-10-17 21:13:00,
2013-10-17 17:18:00,66.7,65.6,29.88,SW,225,0.0,0.0,96,0.00,,OVC018,0.08,VWS V14.01,2013-10-17 21:18:00,
2013-10-17 17:23:00,66.7,65.6,29.88,SW,225,2.7,2.7,96,0.00,,BKN016,0.08,VWS V14.01,2013-10-17 21:23:00,
2013-10-17 17:28:00,66.7,65.6,29.88,SW,225,0.0,2.2,96,0.00,,BKN016,0.08,VWS V14.01,2013-10-17 21:28:00,
2013-10-17 17:33:00,66.7,65.6,29.88,SW,225,0.0,0.0,96,0.00,,BKN016,0.08,VWS V14.01,2013-10-17 21:33:00,
2013-10-17 17:38:00,66.7,65.6,29.88,SW,225,0.0,0.0,96,0.00,,BKN016,0.08,VWS V14.01,2013-10-17 21:38:00,
2013-10-17 17:43:00,66.7,65.6,29.88,SW,225,0.0,0.0,96,0.00,,BKN022,0.08,VWS V14.01,2013-10-17 21:43:00,
2013-10-17 17:48:00,66.7,65.6,29.88,SW,225,0.0,0.0,96,0.00,,BKN022,0.08,VWS V14.01,2013-10-17 21:48:00,
2013-10-17 17:53:00,66.6,65.4,29.88,SW,225,0.0,0.0,96,0.00,,BKN022,0.08,VWS V14.01,2013-10-17 21:53:00,
2013-10-17 17:58:00,66.7,65.6,29.88,SW,225,0.0,0.0,96,0.00,,BKN022,0.08,VWS V14.01,2013-10-17 21:58:00,
2013-10-17 18:03:00,66.6,65.4,29.88,SW,225,0.0,0.0,96,0.00,,BKN120,0.08,VWS V14.01,2013-10-17 22:03:00,
2013-10-17 18:08:00,66.6,65.4,29.88,SW,225,0.0,0.0,96,0.00,,BKN120,0.08,VWS V14.01,2013-10-17 22:08:00,
2013-10-17 18:13:00,66.6,65.7,29.88,SW,225,0.0,0.0,97,0.00,,BKN120,0.08,VWS V14.01,2013-10-17 22:13:00,
2013-10-17 18:18:00,66.6,65.7,29.88,SW,225,0.0,0.0,97,0.00,,BKN120,0.08,VWS V14.01,2013-10-17 22:18:00,
2013-10-17 18:23:00,66.4,65.5,29.88,SW,225,0.0,0.0,97,0.00,,OVC022,0.08,VWS V14.01,2013-10-17 22:23:00,
2013-10-17 18:28:00,66.2,65.3,29.88,SW,225,0.0,0.0,97,0.00,,OVC022,0.08,VWS V14.01,2013-10-17 22:28:00,
2013-10-17 18:33:00,66.0,65.2,29.88,SW,225,0.0,0.0,97,0.00,,OVC022,0.08,VWS V14.01,2013-10-17 22:33:00,
2013-10-17 18:38:00,65.8,65.0,29.88,SW,225,0.0,0.0,97,0.00,,OVC022,0.08,VWS V14.01,2013-10-17 22:38:00,
2013-10-17 18:43:00,65.8,65.0,29.88,SW,225,0.0,0.0,97,0.00,,OVC070,0.08,VWS V14.01,2013-10-17 22:43:00,
2013-10-17 18:48:00,65.7,64.8,29.88,SW,225,0.0,0.0,97,0.00,,OVC070,0.08,VWS V14.01,2013-10-17 22:48:00,
2013-10-17 18:53:00,65.5,64.6,29.88,SW,225,0.0,0.0,97,0.00,,OVC070,0.08,VWS V14.01,2013-10-17 22:53:00,
2013-10-17 18:58:00,65.3,64.4,29.88,SW,225,0.0,0.0,97,0.00,,OVC070,0.08,VWS V14.01,2013-10-17 22:58:00,
2013-10-17 19:03:00,65.3,64.4,29.88,SW,225,0.0,0.0,97,0.00,,OVC070,0.08,VWS V14.01,2013-10-17 23:03:00,
2013-10-17 19:09:00,65.3,64.4,29.91,SW,225,0.0,0.0,97,0.00,,OVC070,0.08,VWS V14.01,2013-10-17 23:09:00,
2013-10-17 19:14:00,65.3,64.4,29.91,SW,225,0.0,0.0,97,0.00,,OVC070,0.08,VWS V14.01,2013-10-17 23:14:00,
2013-10-17 19:19:00,65.1,64.5,29.88,SW,225,0.0,0.0,98,0.00,,OVC070,0.08,VWS V14.01,2013-10-17 23:19:00,
2013-10-17 19:24:00,65.1,64.5,29.88,SW,225,0.0,0.0,98,0.00,,OVC080,0.08,VWS V14.01,2013-10-17 23:24:00,
2013-10-17 19:29:00,65.1,64.5,29.88,SW,225,0.0,0.0,98,0.00,,OVC080,0.08,VWS V14.01,2013-10-17 23:29:00,
2013-10-17 19:34:00,64.9,64.4,29.88,SW,225,0.0,0.0,98,0.00,,OVC080,0.08,VWS V14.01,2013-10-17 23:34:00,
2013-10-17 19:39:00,64.8,64.2,29.91,SW,225,0.0,0.0,98,0.00,,OVC080,0.08,VWS V14.01,2013-10-17 23:39:00,
2013-10-17 19:44:00,64.8,64.2,29.91,SW,225,0.0,0.0,98,0.00,,BKN070,0.08,VWS V14.01,2013-10-17 23:44:00,
2013-10-17 19:49:00,64.8,64.2,29.91,SW,225,0.0,0.0,98,0.00,,BKN070,0.08,VWS V14.01,2013-10-17 23:49:00,
2013-10-17 19:54:00,64.8,64.2,29.91,SW,225,0.0,0.0,98,0.00,,BKN070,0.08,VWS V14.01,2013-10-17 23:54:00,
2013-10-17 19:59:00,64.6,64.0,29.91,SW,225,0.0,0.0,98,0.00,,BKN070,0.08,VWS V14.01,2013-10-17 23:59:00,
2013-10-17 20:04:00,64.6,64.0,29.91,SW,225,0.0,0.0,98,0.00,,BKN070,0.08,VWS V14.01,2013-10-18 00:04:00,
2013-10-17 20:09:00,64.6,64.0,29.91,SW,225,0.0,0.0,98,0.00,,BKN070,0.08,VWS V14.01,2013-10-18 00:09:00,
2013-10-17 20:14:00,64.4,63.8,29.91,SW,225,0.0,0.0,98,0.00,,BKN070,0.08,VWS V14.01,2013-10-18 00:14:00,
2013-10-17 20:19:00,64.4,63.8,29.91,SW,225,0.0,0.0,98,0.00,,BKN070,0.08,VWS V14.01,2013-10-18 00:19:00,
2013-10-17 20:25:00,64.6,64.0,29.91,SW,225,0.0,0.0,98,0.00,,SCT060,0.08,VWS V14.01,2013-10-18 00:25:00,
2013-10-17 20:30:00,64.6,64.0,29.91,SW,225,0.0,0.0,98,0.00,,SCT060,0.08,VWS V14.01,2013-10-18 00:30:00,
2013-10-17 20:35:00,64.4,63.8,29.91,SW,225,0.0,0.0,98,0.00,,SCT060,0.08,VWS V14.01,2013-10-18 00:35:00,
2013-10-17 20:40:00,64.4,63.8,29.91,SW,225,0.0,0.0,98,0.00,,SCT060,0.08,VWS V14.01,2013-10-18 00:40:00,
2013-10-17 20:45:00,64.4,63.8,29.91,SW,225,0.0,0.0,98,0.00,,BKN011,0.08,VWS V14.01,2013-10-18 00:45:00,
2013-10-17 20:50:00,64.4,63.8,29.91,SW,225,0.0,0.0,98,0.00,,BKN011,0.08,VWS V14.01,2013-10-18 00:50:00,
2013-10-17 20:55:00,64.4,63.8,29.91,SW,225,0.0,0.0,98,0.00,,BKN011,0.08,VWS V14.01,2013-10-18 00:55:00,
2013-10-17 21:00:00,64.4,63.8,29.91,SW,225,0.0,0.0,98,0.00,,BKN011,0.08,VWS V14.01,2013-10-18 01:00:00,
2013-10-17 21:05:00,64.4,63.8,29.91,SW,225,0.0,0.0,98,0.00,,OVC011,0.08,VWS V14.01,2013-10-18 01:05:00,
2013-10-17 21:10:00,64.4,63.8,29.91,SW,225,0.0,0.0,98,0.00,,OVC011,0.08,VWS V14.01,2013-10-18 01:10:00,
2013-10-17 21:15:00,64.4,63.8,29.91,SW,225,0.0,0.0,98,0.00,,OVC011,0.08,VWS V14.01,2013-10-18 01:15:00,
2013-10-17 21:20:00,64.2,63.7,29.91,SW,225,0.0,0.0,98,0.00,,BKN011,0.08,VWS V14.01,2013-10-18 01:20:00,
2013-10-17 21:25:00,64.2,63.7,29.91,SW,225,0.0,0.0,98,0.00,,BKN011,0.08,VWS V14.01,2013-10-18 01:25:00,
2013-10-17 21:30:00,64.0,63.5,29.91,SW,225,0.0,0.0,98,0.00,,BKN011,0.08,VWS V14.01,2013-10-18 01:30:00,
2013-10-17 21:35:00,63.5,62.9,29.91,SW,225,0.0,0.0,98,0.00,,BKN011,0.08,VWS V14.01,2013-10-18 01:35:00,
2013-10-17 21:40:00,63.3,62.8,29.91,SW,225,0.0,0.0,98,0.00,,,0.08,VWS V14.01,2013-10-18 01:40:00,
2013-10-17 21:45:00,63.1,62.6,29.91,SW,225,0.0,0.0,98,0.00,,,0.08,VWS V14.01,2013-10-18 01:45:00,
2013-10-17 21:51:00,63.0,62.4,29.94,SW,225,0.0,0.0,98,0.00,,,0.08,VWS V14.01,2013-10-18 01:51:00,
2013-10-17 21:56:00,63.1,62.6,29.94,SW,225,0.0,0.0,98,0.00,,,0.08,VWS V14.01,2013-10-18 01:56:00,
2013-10-17 22:01:00,63.3,62.8,29.94,SW,225,0.0,0.0,98,0.00,,BKN004,0.08,VWS V14.01,2013-10-18 02:01:00,
2013-10-17 22:06:00,63.3,62.8,29.94,SW,225,0.0,0.0,98,0.00,,BKN004,0.08,VWS V14.01,2013-10-18 02:06:00,
2013-10-17 22:11:00,63.5,62.9,29.94,SW,225,0.0,0.0,98,0.00,,BKN004,0.08,VWS V14.01,2013-10-18 02:11:00,
2013-10-17 22:16:00,63.7,63.1,29.94,SW,225,0.0,0.0,98,0.00,,BKN004,0.08,VWS V14.01,2013-10-18 02:16:00,
2013-10-17 22:21:00,63.5,62.9,29.94,SW,225,0.0,2.7,98,0.00,,,0.08,VWS V14.01,2013-10-18 02:21:00,
2013-10-17 22:26:00,63.5,62.9,29.94,SW,225,0.0,0.0,98,0.00,,,0.08,VWS V14.01,2013-10-18 02:26:00,
2013-10-17 22:31:00,63.5,62.9,29.94,SW,225,0.0,0.0,98,0.00,,,0.08,VWS V14.01,2013-10-18 02:31:00,
2013-10-17 22:36:00,63.1,62.6,29.94,SW,225,0.0,0.0,98,0.00,,,0.08,VWS V14.01,2013-10-18 02:36:00,
2013-10-17 22:41:00,63.0,62.4,29.94,SW,225,0.0,0.0,98,0.00,,,0.08,VWS V14.01,2013-10-18 02:41:00,
2013-10-17 22:46:00,62.8,62.2,29.94,SW,225,0.0,0.0,98,0.00,,,0.08,VWS V14.01,2013-10-18 02:46:00,
2013-10-17 22:51:00,62.4,61.8,29.94,SW,225,0.0,0.0,98,0.00,,,0.08,VWS V14.01,2013-10-18 02:51:00,
2013-10-17 22:56:00,62.2,61.7,29.94,SW,225,0.0,0.0,98,0.00,,,0.08,VWS V14.01,2013-10-18 02:56:00,
2013-10-17 23:01:00,62.2,61.7,29.94,SW,225,0.0,0.0,98,0.00,,,0.08,VWS V14.01,2013-10-18 03:01:00,
2013-10-17 23:06:00,62.1,61.5,29.94,SW,225,0.0,0.0,98,0.00,,,0.08,VWS V14.01,2013-10-18 03:06:00,
2013-10-17 23:11:00,62.1,61.5,29.94,SW,225,0.0,0.0,98,0.00,,,0.08,VWS V14.01,2013-10-18 03:11:00,
2013-10-17 23:16:00,62.1,61.5,29.94,SW,225,0.0,0.0,98,0.00,,,0.08,VWS V14.01,2013-10-18 03:16:00,
2013-10-17 23:21:00,62.1,61.5,29.94,SW,225,0.0,0.0,98,0.00,,,0.08,VWS V14.01,2013-10-18 03:21:00,
2013-10-17 23:26:00,62.2,61.7,29.94,SW,225,0.0,0.0,98,0.00,,,0.08,VWS V14.01,2013-10-18 03:26:00,
2013-10-17 23:31:00,62.4,61.8,29.94,SW,225,0.0,0.0,98,0.00,,,0.08,VWS V14.01,2013-10-18 03:31:00,
2013-10-17 23:36:00,62.6,62.0,29.94,SW,225,0.0,0.0,98,0.00,,,0.08,VWS V14.01,2013-10-18 03:36:00,
2013-10-17 23:41:00,62.6,62.0,29.94,SW,225,0.0,0.0,98,0.00,,,0.08,VWS V14.01,2013-10-18 03:41:00,
2013-10-17 23:46:00,62.6,62.0,29.94,SW,225,0.0,0.0,98,0.00,,,0.08,VWS V14.01,2013-10-18 03:46:00,
2013-10-17 23:52:00,62.6,62.0,29.94,SW,225,0.0,0.0,98,0.00,,,0.08,VWS V14.01,2013-10-18 03:52:00,
2013-10-17 23:57:00,62.2,61.7,29.94,SW,225,0.0,0.0,98,0.00,,,0.08,VWS V14.01,2013-10-18 03:57:00,